Location: Deurze
(52.9838°N, 6.6090°E)
Time: 18:22:07
(UTC+00:00)

Cosmos 921 Rocket - Pass Details

Date: 11 March 2026
Orbit: 563 x 620 km, 75.8° (Epoch: 20 April)

Event Time Altitude Azimuth Distance (km) Brightness Sun altitude
Rises 19:01:33 0° 194° (SSW) 2,761 6.4 -14.4°
Reaches altitude 10° 19:03:44 10° 192° (SSW) 1,875 5.5 -14.7°
Maximum altitude 19:07:52 71° 110° (ESE) 618 2.8 -15.3°
Drops below altitude 10° 19:12:08 10° 26° (NNE) 1,923 5.5 -16.0°
Sets 19:14:23 0° 24° (NNE) 2,838 6.4 -16.3°
